Regional Weather Roundup
Issued by NWS

Home | Current Version | Previous Version | Text Only | Print | Product List | Glossary Off
Versions: 1 2 3 4 5 6 7 8 9 10 11 12 13 14 15 16 17 18 19 20 21 22 23 24 25 26 27 28 29 30 31 32 33 34 35 36 37 38 39 40 41 42 43 44 45 46 47 48 49 50

000
ASUS43 KMPX 231301
RWRMN
WEATHER ROUNDUP FOR MINNESOTA
NATIONAL WEATHER SERVICE TWIN CITIES/CHANHASSEN MN
800 AM CDT SUN APR 23 2017


NOTE: "FAIR" INDICATES FEW OR NO CLOUDS BELOW 12,000 FEET WITH NO
SIGNIFICANT WEATHER AND/OR OBSTRUCTIONS TO VISIBILITY. N/A MEANS
CURRENT SKY AND/OR WEATHER CONDITIONS ARE NOT AVAILABLE.

MNZ060>063-068>070-231400-
   Twin Cities Metro

CITY           SKY/WX    TMP DP  RH WIND       PRES   REMARKS
TWIN CITIES    PTSUNNY   51  39  63 N10       30.11R
ST PAUL        MOSUNNY   50  42  74 NE9       30.12R
CRYSTAL        CLOUDY    47  37  68 NE8       30.10R
BLAINE         MOSUNNY   48  39  71 NE9       30.11R
LAKEVILLE      SUNNY     52  39  62 W6        30.09S
EDEN PRAIRIE   SUNNY     52  40  63 N6        30.09R
SOUTH ST PAUL  SUNNY     51  39  63 N7        30.10R
LAKE ELMO      FAIR      48  41  76 N7        30.11R
$$
MNZ001>005-007-008-013>017-022>024-027-028-231400-
   Northwest Minnesota

CITY           SKY/WX    TMP DP  RH WIND       PRES   REMARKS
BEMIDJI        PTSUNNY   32  25  77 E13       30.19F WCI  22
HALLOCK        CLOUDY    30  19  64 E9        30.26S WCI  22
ROSEAU         CLOUDY    30  21  69 E7        30.26R WCI  23
WARROAD        CLOUDY    30  16  55 NE15      30.26S WCI  19
THIEF RVR FALL CLOUDY    31  22  69 NE15      30.22S WCI  20
CROOKSTON      CLOUDY    34  27  75 E12G18    30.22F WCI  25
FOSSTON        PTSUNNY   30  28  93 E13       30.20R WCI  20
DETROIT LAKES  FLURRIES  32  32 100 E16G23    30.14S WCI  21
MOORHEAD       CLOUDY    34  30  86 NE17      30.16S WCI  23
PARK RAPIDS    HVY SNOW  32  29  88 NE7       30.17S VSB 1/4 WCI  26
MAHNOMEN       LGT SNOW  31  28  89 E17       30.15F WCI  20
$$
MNZ006-009>011-018-025>026-231400-
   North Central Minnesota

CITY           SKY/WX    TMP DP  RH WIND       PRES   REMARKS
BAUDETTE       CLOUDY    28  12  51 NE12      30.26R WCI  18
FLAG ISLAND    MOSUNNY   28  12  50 E7        30.27S WCI  21
INTL FALLS     PTSUNNY   29  18  63 NE12      30.24S WCI  19
WASKISH        CLOUDY    28  21  74 NE8       30.24S WCI  20
BIG FORK       PTSUNNY   30  25  80 NE8       30.22R WCI  23
LONGVILLE      LGT SNOW  30  30 100 NE6       30.19R WCI  24
GRAND RAPIDS   LGT SNOW  30  28  93 N7        30.22S FOG     WCI  23
CRANE LAKE     CLOUDY    27  21  80 N5        30.26S WCI  21
ORR            CLOUDY    28  19  69 MISG      30.21S
COOK           CLOUDY    28  21  74 NE6       30.23S WCI  22
WALKER         LGT SNOW  30  28  90 NE12      30.20R WCI  21
$$
MNZ012-019>021-037-231400-
   Northeast Minnesota

CITY           SKY/WX    TMP DP  RH WIND       PRES   REMARKS
DULUTH         LGT SNOW  33  32  96 NE12      30.18R VSB 3/4 WCI  24
ELY            CLOUDY    28  19  69 N7        30.21S WCI  21
HIBBING        CLOUDY    29  23  78 N8        30.20S WCI  21
EVELETH        CLOUDY    32  24  72 NE10G17   30.21S WCI  24
DULUTH HARBOR  LGT RAIN  34  34 100 NE13      30.23R WCI  25
TWO HARBORS    CLOUDY    36  30  80 CALM      30.19R
SILVER BAY     CLOUDY    34  30  86 CALM      30.19S
GRAND MARAIS     N/A     34  21  59 NE8       30.23R WCI  27
G MARAIS ARPRT CLOUDY    27  16  63 N14       30.18R WCI  15
$$
MNZ029>031-032-039>041-046>048-054>057-064-231400-
   West Central Minnesota

CITY           SKY/WX    TMP DP  RH WIND       PRES   REMARKS
FERGUS FALLS   CLOUDY    39  34  81 E21G26    30.09F
WHEATON        CLOUDY    43  37  81 NE7       30.11R
MORRIS         PTSUNNY   45  39  81 E14       30.07S
ALEXANDRIA     CLOUDY    41  37  86 E16       30.10F
ELBOW LAKE     PTSUNNY   40  36  84 E17G24    30.09R
WADENA         CLOUDY    34  34 100 NE13      30.14S WCI  25
GLENWOOD       MOSUNNY   43  37  81 NE20      30.10S
APPLETON       MOSUNNY   43  39  87 E3        30.08S
BENSON         MOSUNNY   46  37  71 SE9G17    30.09F
ORTONVILLE     CLOUDY    41  39  93 E5        30.07F
MADISON        SUNNY     43  41  93 W5        30.09S
WILLMAR        FAIR      46  43  87 E14       30.10F
$$
MNZ033>034-036-042>043-049>051-058-059-231400-
   Central Minnesota

CITY           SKY/WX    TMP DP  RH WIND       PRES   REMARKS
ST CLOUD       MOSUNNY   45  38  76 NE10      30.13R
SAUK CENTRE    CLOUDY    42  37  82 NE13G18   30.11F
PAYNESVILLE    SUNNY     45  39  78 NE9       30.11S
AITKIN         MIX PCPN  36  30  80 NE8       30.15F
PINE RIVER     LGT SNOW  34  34 100 NE6       30.20R WCI  29
BRAINERD       CLOUDY    36  33  89 NE13      30.16S
STAPLES        CLOUDY    36  32  87 NE9       30.15S
LONG PRAIRIE   CLOUDY    39  36  87 N8        30.13S
LITTLE FALLS   CLOUDY    39  34  81 NE3       30.14S
LITCHFIELD     SUNNY     46  41  81 NE12      30.11R
BUFFALO        MOSUNNY   46  38  74 NE8       30.13R
MAPLE LAKE     MOSUNNY   47  41  79 NE9       30.13R
HUTCHINSON     CLOUDY    48  43  80 NE10      30.11S
$$
MNZ037-044-045-052-053-231400-
   East Central Minnesota

CITY           SKY/WX    TMP DP  RH WIND       PRES   REMARKS
PRINCETON      PTSUNNY   46  37  71 N10       30.14R
MORA           CLOUDY    39  34  81 NE8       30.17R
CAMBRIDGE      CLOUDY    46  36  66 NE6       30.11R
RUSH CITY      LGT RAIN  42  38  85 NE9       30.14R
MOOSE LAKE     CLOUDY    36  32  87 NE7G16    30.16R
HINCKLEY       CLOUDY    41  37  87 NE12G18   30.15R
CLOQUET        LGT SNOW  34  30  86 N8        30.19R WCI  27
MCGREGOR       CLOUDY    34  32  93 NE9       30.18S WCI  26
$$
MNZ071>073-080-081-089-090-097-098-231400-
   Southwest Minnesota

CITY           SKY/WX    TMP DP  RH WIND       PRES   REMARKS
MONTEVIDEO     SUNNY     46  43  87 CALM      30.08F
GRANITE FALLS  SUNNY     42  39  89 CALM      30.10F
CANBY          SUNNY     40  37  90 CALM      30.10F
MARSHALL       SUNNY     40  37  89 NW6       30.10F
REDWOOD FALLS  SUNNY     44  38  79 VRB3      30.10R
OLIVIA         SUNNY     43  37  81 N5        30.09S
PIPESTONE      SUNNY     46  34  61 SW6       30.07S
WINDOM         SUNNY     52  36  54 SW8       30.10R
WORTHINGTON    SUNNY     52  32  46 SW16      30.09F
JACKSON        SUNNY     50  32  50 SW10      30.11R
TRACY          SUNNY     43  40  90 N3        30.10S
SLAYTON        SUNNY     49  33  52 SW15      30.09R
$$
MNZ065>067-074>077-082>085-091>093-231400-
   South Central Minnesota

CITY           SKY/WX    TMP DP  RH WIND       PRES   REMARKS
MANKATO        SUNNY     51  37  58 W6        30.11R
NEW ULM        SUNNY     48  37  66 W3        30.10R
ST JAMES       SUNNY     48  37  66 W3        30.11R
FAIRMONT       SUNNY     51  37  58 SW8       30.11S
GLENCOE        SUNNY     49  42  76 NW5       30.09S
FARIBAULT      SUNNY     50  39  66 CALM      30.11R
OWATONNA       SUNNY     50  37  62 SW6       30.10S
WASECA         SUNNY     46  37  71 CALM      30.11S
ALBERT LEA     SUNNY     52  34  50 SW5       30.11R
$$
MNZ078>079-086>088-094>096-231400-
   Southeast Minnesota

CITY           SKY/WX    TMP DP  RH WIND       PRES   REMARKS
ROCHESTER      SUNNY     50  39  66 SW7       30.11S
RED WING       SUNNY     54  39  58 CALM      30.09S
STANTON        SUNNY     51  42  71 SW6       30.10S
DODGE CENTER   SUNNY     48  39  71 SW7       30.11R
WINONA         SUNNY     54  41  62 CALM      30.11R
AUSTIN         SUNNY     46  39  76 CALM      30.11R
PRESTON        SUNNY     50  35  56 W7        30.13R
$$
ABBREVIATIONS USED IN REMARKS
   TC - TEMPERATURES IN CELSIUS
  WCI - WIND CHILL INDEX
   HX - HEAT INDEX
  VSB - VISIBILITY
$$



USA.gov is the U.S. government's official web portal to all federal, state and local government web resources and services.